Zurück zum Katalog

TJS-17

AktivMilitärGEO
NORAD 63524·PAYLOAD·🇨🇳 China

Gestartet Apr 10, 2025 von Xichang Satellite Launch Center

Loading…

TLE

AktuellSource: Space-Track

Epoche: Sep 13, 2026, 17:48 UTC

1 63524U 25073A   26256.74211248 -.00000079  00000-0  00000+0 0  9993
2 63524   1.2867  81.7514 0001145 174.7946 167.8599  1.00271399  5171

Verfolge TJS-17 in Echtzeit mit AllMySat

Download on the App Store